Content
SEND FEEDBACK

Daily
Averages
Monthly
Summary
United States of America

WAHWEAP, ARIZONA


Home > North America > United States > Arizona
Elevation: 3703 feet     Latitude: 36 59N     Longitude: 111 29W

WEATHER
 
SELECT A DAY
Number of Records: 194,702;   Date Range: 1/1/95 - 7/26/14
 
SHARE

PRINT THIS DATA

[ ← Previous Day ]
WEATHER ALMANAC - FEBRUARY 5, 2013
[ Next Day → ]
[ °C ]   °F
Weather ElementAverageHighLow
Temperature41.8 °F53.1 °F (3:53 pm)32 °F (6:53 am)
Dewpoint27.9 °F30.9 °F (12:53 pm)26.1 °F (6:53 am)
Humidity60.2 %82 % (3:53 am)37 % (3:53 pm)
Barometer30.04 in30.15 in (7:53 am)29.92 in (11:53 pm)
Wind Speed2 mph6.9 mph (8:53 pm)
Weather ElementAverage
Visibility9.5 mi
Wind DirectionENE (52.6 °)

Weather ElementTotal
Precipitation---
Heating Degree Days22.5 (Base 65)
Averaged from 23 records on February 5, 2013
WEATHER CONDITIONS BREAKOUT
WIND DIRECTION BREAKOUT
WEATHER BY HOUR - FEBRUARY 5, 2013
[ °C ]   °F
Local TimeTemperatureDewpointHumidityBarometerVisibilityWind DirectionWind SpeedGust SpeedPrecipitationEventsConditions
1:53 AM35.1 °F28.0 °F76 %30.09 in10.0 miCalmClear
2:53 AM35.1 °F28.0 °F76 %30.09 in9.0 miCalmClear
3:53 AM33.1 °F28.0 °F82 %30.10 in7.0 miWSW (250°)3.5 mphClear
4:53 AM34.0 °F27.0 °F75 %30.10 in9.0 miCalmClear
5:53 AM33.1 °F27.0 °F78 %30.11 in10.0 miCalmClear
6:53 AM32.0 °F26.1 °F79 %30.13 in9.0 miSouth (190°)3.5 mphClear
7:53 AM32.0 °F26.1 °F79 %30.15 in8.0 miCalmClear
8:53 AM37.9 °F28.0 °F68 %30.14 in10.0 miCalmClear
9:53 AM39.0 °F28.9 °F67 %30.14 in10.0 miWNW (290°)4.6 mphClear
10:53 AM43.0 °F30.0 °F60 %30.13 in10.0 miCalmClear
11:53 AM46.0 °F30.0 °F54 %30.11 in10.0 miNNE (30°)4.6 mphClear
12:53 PM48.0 °F30.9 °F52 %30.06 in10.0 miCalmClear
1:53 PM50.0 °F30.0 °F46 %30.01 in10.0 miVariable4.6 mphClear
2:53 PM51.1 °F28.0 °F41 %29.99 in10.0 miNE (50°)5.8 mphClear
3:53 PM53.1 °F27.0 °F37 %29.97 in10.0 miNE (50°)4.6 mphClear
4:53 PM53.1 °F27.0 °F37 %29.96 in10.0 miNNE (20°)3.5 mphClear
5:53 PM50.0 °F26.1 °F39 %29.96 in10.0 miCalmClear
6:53 PM46.0 °F26.1 °F46 %29.97 in10.0 miCalmClear
7:53 PM44.1 °F27.0 °F51 %29.98 in10.0 miCalmClear
8:53 PM43.0 °F28.9 °F58 %29.95 in10.0 miEast (80°)6.9 mphClear
9:53 PM41.0 °F28.0 °F60 %29.95 in10.0 miCalmClear
10:53 PM39.9 °F28.0 °F63 %29.94 in6.0 miWSW (250°)3.5 mphHaze
11:53 PM41.0 °F28.0 °F60 %29.92 in10.0 miCalmClear
Hourly data recorded from KPGA, located miles away from Wahweap, Arizona







STORIES FROM OUR PARTNERS